Regional Weather Roundup
Issued by NWS

Home | Current Version | Previous Version | Text Only | Print | Product List | Glossary Off
Versions: 1 2 3 4 5 6 7 8 9 10 11 12 13 14 15 16 17 18 19 20 21 22 23 24 25 26 27 28 29 30 31 32 33 34 35 36 37 38 39 40 41 42 43 44 45 46 47 48 49 50

000
ASUS43 KLOT 201303
RWRIL

ILLINOIS REGIONAL WEATHER ROUNDUP
NATIONAL WEATHER SERVICE CHICAGO/ROMEOVILLE IL
700 AM CST MON NOV 20 2017

NOTE: "FAIR" INDICATES FEW OR NO CLOUDS BELOW 12,000 FEET WITH NO
SIGNIFICANT WEATHER AND/OR OBSTRUCTIONS TO VISIBILITY.

* THESE STATIONS ARE NOT UNDER NWS QUALITY CONTROL. THEY ALSO MAY NOT
  REPORT WEATHER SUCH AS PRECIPITATION OR FOG.

ILZ001-002-007-009-015-016-024-201400-
NORTHWEST ILLINOIS

CITY           SKY/WX    TMP DP  RH WIND       PRES   REMARKS
MOLINE         PTCLDY    37  26  64 SW5       29.91F WCI  33
STERLING*        N/A    N/A N/A N/A MISG        N/A
SAVANNA*       CLEAR     29  26  88 S12       29.89F WCI  20
$$

ILZ003-004-008-010-011-017-018-201400-
NORTH CENTRAL ILLINOIS

CITY           SKY/WX    TMP DP  RH WIND       PRES   REMARKS
ROCKFORD       PTCLDY    31  25  78 S10       29.92F WCI  22
FREEPORT*      CLEAR     31  26  80 S16       29.89F WCI  20
ROCHELLE*      CLEAR     28  25  91 S10       29.94S WCI  18
DE KALB*       CLEAR     27  25  90 S13       29.94F WCI  16
PERU*          CLOUDY    32  25  74 SW10      29.97S WCI  24
$$

ILZ005-006-012>014-019>023-201400-
NORTHEAST ILLINOIS

CITY           SKY/WX    TMP DP  RH WIND       PRES   REMARKS
CHICAGO-OHARE  PTCLDY    35  24  64 SW17G23   29.94F WCI  25
CHICAGO-MIDWAY PTCLDY    34  25  69 SW12      29.97S WCI  25
AURORA         CLEAR     31  25  78 S9        29.97S WCI  23
LANSING*       CLEAR     32  27  81 SW14      30.00S WCI  22
JOLIET*        CLEAR     34  27  76 S8        29.99S WCI  27
WAUKEGAN       CLEAR     33  25  72 SW12      29.91F WCI  24
DUPAGE AIRPORT CLEAR     29  25  85 S12       29.94F WCI  19
KANKAKEE*      CLOUDY    33  25  73 S13       30.03S WCI  23
WHEELING       CLEAR     35  25  66 S12       29.95F WCI  27
MORRIS*        CLEAR     33  26  73 SW13      29.98S WCI  24
ROMEOVILLE*    CLEAR     32  26  78 S8        29.99S WCI  25
NORTHERLY ISL    N/A     35  24  64 S5          N/A  WCI  31
$$

LMZ740>746-201400-
SOUTHERN LAKE MICHIGAN

STATION/POSITION SKY/WX   TEMP    WIND        PRES    VSBY  WAVE
                          AIR SEA DIR/SP/G                  HT/PER
                          (F)     (DEG/KT/KT) (MB)    (MI)  (FT/S)
SOUTHERN BUOY              43 49  260/ 23/ 27 1013.4          6/ 6
HARRISON CRIB              38     220/ 26/ 29   N/A
BURNHAM HARBOR             35     190/  8/ 11   N/A
CALUMET HARBOR             35     200/ 12/ 17 1014.4F
BURNS HARBOR               34     190/ 17/ 20 1015.6F
MICHIGAN CITY              33     170/ 17/ 21   N/A
$$

ILZ025>027-034>036-040-047-049-050-058-095>099-201400-
WEST-CENTRAL ILLINOIS

CITY           SKY/WX    TMP DP  RH WIND       PRES   REMARKS
QUINCY         CLEAR     39  27  62 S16       29.99F WCI  30
GALESBURG*     CLOUDY    34  28  80 S12       29.96S WCI  25
MACOMB*        CLEAR     36  28  75 S10       29.99F WCI  28
JACKSONVILLE*  CLEAR     33  25  72 S12       30.04F WCI  24
PITTSFIELD*    CLOUDY    38  27  64 S13G18    30.03F WCI  30
$$

ILZ028>032-037-038-041>044-048-051>054-059>061-201400-
CENTRAL ILLINOIS

CITY           SKY/WX    TMP DP  RH WIND       PRES   REMARKS
PONTIAC        CLOUDY    35  28  75 S17G24    30.01S WCI  24
BLOOMINGTON    CLOUDY    32  25  75 S15       30.04S WCI  22
DECATUR        CLEAR     33  23  66 SW13      30.09R WCI  24
PEORIA         CLOUDY    32  25  75 S12       30.00F WCI  23
LACON*         CLOUDY    35  25  67 S10       29.98S WCI  28
LINCOLN*       CLOUDY    32  27  79 S9        30.05F WCI  25
SPRINGFIELD    CLEAR     35  25  66 S9        30.06S WCI  28
TAYLORVILLE    CLEAR     32  24  74 S12       30.09S WCI  23
$$

ILZ033-039-045-046-055>057-062-063-201400-
EAST-CENTRAL ILLINOIS

CITY           SKY/WX    TMP DP  RH WIND       PRES   REMARKS
CHAMPAIGN      CLOUDY    31  24  75 S15       30.08S WCI  20
DANVILLE*      CLOUDY    31  23  71 S13       30.07S WCI  22
RANTOUL*       CLOUDY    33  27  80 S9        30.07S WCI  25
MATTOON        CLOUDY    31  23  72 S12       30.11R WCI  22
PARIS*         CLOUDY    30  24  77 S9        30.14R WCI  22
$$

ILZ079-100>102-201400-
SOUTHWEST ILLINOIS

CITY           SKY/WX    TMP DP  RH WIND       PRES   REMARKS
ALTON          MOCLDY    32  25  74 S14G21    30.11S WCI  22
BELLEVILLE     CLOUDY    30  21  68 S6        30.13S WCI  24
CAHOKIA*       CLOUDY    26  21  81 CALM      30.13S
SPARTA*        CLOUDY    35  22  60 S10       30.17S WCI  27
$$

ILZ064>066-069>071-074>076-080>082-084>086-088>090-092>094-201400-
SOUTH-CENTRAL ILLINOIS

CITY           SKY/WX    TMP DP  RH WIND       PRES   REMARKS
CARBONDALE     CLOUDY    29  24  82 S5        30.20R WCI  24
CAIRO*         CLOUDY    30  25  83 CALM      30.23S
EFFINGHAM*     CLEAR     30  23  75 SE6       30.17R WCI  24
MARION         PTCLDY    30  25  80 S7        30.22R WCI  23
MT. VERNON     CLOUDY    27  25  92 SW6       30.18S WCI  20
CENTRALIA*     PTCLDY    33  25  72 S12       30.15S WCI  25
SALEM*         CLOUDY    34  23  63 S9        30.15S WCI  27
METROPOLIS*    CLOUDY    25  23  93 CALM      30.25S
$$

ILZ067-068-072-073-078-083-087-091-201400-
SOUTHEAST ILLINOIS

CITY           SKY/WX    TMP DP  RH WIND       PRES   REMARKS
LAWRENCEVILLE  CLOUDY    29  23  78 S8        30.20S WCI  21
FLORA*         CLOUDY    30  24  78 S6        30.15R WCI  24
FAIRFIELD*     CLOUDY    30  24  79 S5        30.18S WCI  25
HARRISBURG*    CLOUDY    26  24  90 CALM      30.23R
ROBINSON*      CLOUDY    28  22  78 S7        30.18F WCI  21
CARMI*         CLOUDY    27  24  88 S3        30.21R
$$

ABBREVIATIONS USED IN REMARKS
   TC - TEMPERATURE IN CELSIUS
  WCI - WIND CHILL INDEX
   HX - HEAT INDEX
  VSB - VISIBILITY
$$




USA.gov is the U.S. government's official web portal to all federal, state and local government web resources and services.